IU1FIL-23 Weather Reports


Display with metric or nautical units.
time (UTC)temp
F
wind
direction
speed
MPH
gust
MPH
rain 1hr
in
rain 24hr
in
rain mn
in
humidity
%
barometer
mb
20260505194916 47 0.0 0.0 0.00 0.00 0.00 10 1014.3
20260505193911 47 0.0 0.0 0.00 0.00 0.00 10 1014.1
20260505192907 47 0.0 0.0 0.00 0.00 0.00 10 1014.0
20260505191902 47 0.0 0.0 0.00 0.00 0.00 10 1014.0
20260505190857 47 0.0 0.0 0.00 0.00 0.00 10 1014.0
20260505185853 47 0.0 0.0 0.00 0.00 0.00 10 1013.8
20260505184848 48 0.0 0.0 0.00 0.00 0.00 10 1013.8
20260505183920 48 0.0 0.0 0.00 0.00 0.00 10 1013.8
20260505183844 48 0.0 0.0 0.00 0.00 0.00 10 1013.8
20260505182839 48 0.0 0.0 0.00 0.00 0.00 10 1013.8
20260505181834 48 0.0 0.0 0.00 0.00 0.00 10 1014.0
20260505180830 49 0.0 0.0 0.00 0.00 0.00 10 1014.0
20260505175825 50 0.0 0.0 0.00 0.00 0.00 10 1014.1
20260505174821 50 0.0 0.0 0.00 0.00 0.00 10 1014.3
20260505173816 50 0.0 0.0 0.00 0.00 0.00 10 1014.3
20260505172811 51 0.0 0.0 0.00 0.00 0.00 10 1014.1
20260505171807 52 0.0 0.0 0.00 0.00 0.00 10 1014.1
20260505165758 53 0.0 0.0 0.00 0.00 0.00 10 1014.2
20260505164753 53 0.0 0.0 0.00 0.00 0.00 10 1014.2
20260505163748 53 0.0 0.0 0.00 0.00 0.00 10 1014.3
20260505162744 53 0.0 0.0 0.00 0.00 0.00 10 1014.2
20260505161739 53 0.0 0.0 0.00 0.00 0.00 10 1014.2
20260505160734 53 0.0 0.0 0.00 0.00 0.00 10 1014.3
20260505152706 54 0.0 0.0 0.00 0.00 0.00 10 1014.3
20260505151701 53 0.0 0.0 0.00 0.00 0.00 10 1014.3
20260505150657 52 0.0 0.0 0.00 0.00 0.00 10 1014.3
20260505140629 51 0.0 0.0 0.00 0.00 0.00 10 1014.4
20260505124556 52 0.0 0.0 0.00 0.00 0.00 10 1014.5
20260505123551 51 0.0 0.0 0.00 0.00 0.00 10 1014.6
20260505122547 53 0.0 0.0 0.00 0.00 0.00 10 1014.6
20260505121543 52 0.0 0.0 0.00 0.00 0.00 10 1014.7
20260505120539 54 0.0 0.0 0.00 0.00 0.00 10 1014.6
20260505115535 53 0.0 0.0 0.00 0.00 0.00 10 1014.7
20260505114531 51 0.0 0.0 0.00 0.00 0.00 10 1014.7
20260505113513 52 0.0 0.0 0.00 0.00 0.00 10 1014.6
20260505112509 52 0.0 0.0 0.00 0.00 0.00 10 1014.7
20260505111505 54 0.0 0.0 0.00 0.00 0.00 10 1014.6
20260505110501 54 0.0 0.0 0.00 0.00 0.00 10 1014.6
20260505110131 53 0.0 0.0 0.00 0.00 0.00 10 1014.6
20260505102152 52 0.0 0.0 0.00 0.00 0.00 10 1014.7
20260505102112 52 0.0 0.0 0.00 0.00 0.00 10 1014.7
20260505101108 51 0.0 0.0 0.00 0.00 0.00 10 1014.5
20260505095058 51 0.0 0.0 0.00 0.00 0.00 10 1014.7
20260505094054 50 0.0 0.0 0.00 0.00 0.00 10 1014.6
20260505093049 51 0.0 0.0 0.00 0.00 0.00 10 1014.5
20260505092045 52 0.0 0.0 0.00 0.00 0.00 10 1014.5
20260505091040 50 0.0 0.0 0.00 0.00 0.00 10 1014.6
20260505090036 52 0.0 0.0 0.00 0.00 0.00 10 1014.4
20260505085031 53 0.0 0.0 0.00 0.00 0.00 10 1014.3
20260505084026 53 0.0 0.0 0.00 0.00 0.00 10 1014.2
20260505083022 52 0.0 0.0 0.00 0.00 0.00 10 1014.2
20260505082017 51 0.0 0.0 0.00 0.00 0.00 10 1014.1
20260505081012 52 0.0 0.0 0.00 0.00 0.00 10 1014.2
20260505080008 52 0.0 0.0 0.00 0.00 0.00 10 1014.0
20260505075003 51 0.0 0.0 0.00 0.00 0.00 10 1014.0
20260505073958 48 0.0 0.0 0.00 0.00 0.00 10 1014.0
20260505072954 51 0.0 0.0 0.00 0.00 0.00 10 1014.1
20260505071949 54 0.0 0.0 0.00 0.00 0.00 10 1013.6
20260505070945 53 0.0 0.0 0.00 0.00 0.00 10 1013.5
20260505065940 55 0.0 0.0 0.00 0.00 0.00 10 1013.5
20260505064935 57 0.0 0.0 0.00 0.00 0.00 10 1013.4
20260505063931 56 0.0 0.0 0.00 0.00 0.00 10 1013.3
20260505062926 55 0.0 0.0 0.00 0.00 0.00 10 1013.3
20260505061922 53 0.0 0.0 0.00 0.00 0.00 10 1013.2
20260505060917 53 0.0 0.0 0.00 0.00 0.00 98 1013.2
20260505055912 53 0.0 0.0 0.00 0.00 0.00 10 1013.1
20260505054908 50 0.0 0.0 0.00 0.00 0.00 10 1013.1
20260505053903 49 0.0 0.0 0.00 0.00 0.00 10 1012.9
20260505052859 50 0.0 0.0 0.00 0.00 0.00 10 1012.8
20260505051854 49 0.0 0.0 0.00 0.00 0.00 10 1012.9
20260505050849 49 0.0 0.0 0.00 0.00 0.00 10 1012.7
20260505040815 47 0.0 0.0 0.00 0.00 0.00 10 1012.9
20260505035810 47 0.0 0.0 0.00 0.00 0.00 10 1012.9
20260505034805 47 0.0 0.0 0.00 0.00 0.00 10 1013.1
20260505033800 46 0.0 0.0 0.00 0.00 0.00 10 1012.9
20260505032755 47 0.0 0.0 0.00 0.00 0.00 10 1012.3
20260505031750 47 0.0 0.0 0.00 0.00 0.00 10 1013.9
20260505030744 47 0.0 0.0 0.00 0.00 0.00 10 1014.0
20260505025739 47 0.0 0.0 0.00 0.00 0.00 10 1013.9
20260505024734 47 0.0 0.0 0.00 0.00 0.00 10 1014.1
20260505023729 47 0.0 0.0 0.00 0.00 0.00 10 1014.3
20260505022717 47 0.0 0.0 0.00 0.00 0.00 10 1014.2
20260505021712 47 0.0 0.0 0.00 0.00 0.00 10 1014.3
20260505020707 47 0.0 0.0 0.00 0.00 0.00 10 1014.0
20260505015702 47 0.0 0.0 0.00 0.00 0.00 10 1013.9
20260505014658 47 0.0 0.0 0.00 0.00 0.00 10 1014.0
20260505013653 47 0.0 0.0 0.00 0.00 0.00 10 1014.2
20260505012649 47 0.0 0.0 0.00 0.00 0.00 10 1014.6
20260505011645 47 0.0 0.0 0.00 0.00 0.00 10 1014.8
20260505010641 47 0.0 0.0 0.00 0.00 0.00 10 1014.9
20260505005637 47 0.0 0.0 0.00 0.00 0.00 10 1015.0
20260505004633 47 0.0 0.0 0.00 0.00 0.00 10 1015.2
20260505003629 47 0.0 0.0 0.00 0.00 0.00 10 1015.5
20260505002625 47 0.0 0.0 0.00 0.00 0.00 10 1015.6
20260505001621 47 0.0 0.0 0.00 0.00 0.00 10 1015.8
20260505000616 47 0.0 0.0 0.00 0.00 0.00 10 1015.9
20260504235612 47 0.0 0.0 0.00 0.00 0.00 10 1016.0
20260504234608 47 0.0 0.0 0.00 0.00 0.00 10 1016.1
20260504233604 47 0.0 0.0 0.00 0.00 0.00 10 1016.3
20260504232600 47 0.0 0.0 0.00 0.00 0.00 10 1016.7
20260504231556 47 0.0 0.0 0.00 0.00 0.00 10 1016.6
20260504230552 47 0.0 0.0 0.00 0.00 0.00 10 1016.9
20260504225548 47 0.0 0.0 0.00 0.00 0.00 10 1017.1
20260504224544 46 0.0 0.0 0.00 0.00 0.00 10 1017.1
20260504223539 47 0.0 0.0 0.00 0.00 0.00 10 1017.2
20260504222535 47 0.0 0.0 0.00 0.00 0.00 10 1017.3
20260504221531 47 0.0 0.0 0.00 0.00 0.00 10 1017.4
20260504220527 47 0.0 0.0 0.00 0.00 0.00 10 1017.6
20260504215523 47 0.0 0.0 0.00 0.00 0.00 10 1017.7
20260504214519 48 0.0 0.0 0.00 0.00 0.00 10 1017.8
20260504213506 48 0.0 0.0 0.00 0.00 0.00 10 1017.9
20260504212502 48 0.0 0.0 0.00 0.00 0.00 10 1018.1
20260504211457 48 0.0 0.0 0.00 0.00 0.00 10 1018.1
20260504210453 48 0.0 0.0 0.00 0.00 0.00 98 1018.6
20260504205449 48 0.0 0.0 0.00 0.00 0.00 99 1018.6
20260504204445 48 0.0 0.0 0.00 0.00 0.00 10 1018.6
20260504203441 48 0.0 0.0 0.00 0.00 0.00 99 1018.6
20260504202437 48 0.0 0.0 0.00 0.00 0.00 94 1018.6
20260504201433 48 0.0 0.0 0.00 0.00 0.00 93 1018.7
20260504200429 48 0.0 0.0 0.00 0.00 0.00 94 1018.6